Theta_e
355 353 352 349 346 348 347 347 347 346 349 347 347 346 342 346 349 347 346 355 353 354 357 358 359 360 360 360 356 355 356 356 355 354 353 352 352 352 352 352 351 350 350
360 353 354 352 348 349 346 346 344 346 347 348 349 351 350 350 352 351 350 352 353 353 356 358 355 352 360 361 360 358 357 355 355 354 352 352 352 352 352 352 351 351 349
360 354 354 350 348 347 350 349 349 348 347 348 349 350 351 352 351 353 354 353 352 352 354 353 349 352 357 358 359 358 357 355 355 354 353 352 351 351 352 352 351 351 350
360 362 355 353 350 351 349 345 346 343 343 345 346 349 350 354 352 354 353 352 351 354 352 352 351 340 345 354 355 354 354 353 349 346 346 348 350 351 350 351 352 351 350
360 359 357 353 357 350 348 348 345 346 347 351 350 349 353 352 352 349 352 351 350 349 353 348 343 344 345 351 353 351 351 350 346 346 346 346 347 347 349 350 351 351 350
358 358 355 354 359 350 347 345 343 345 347 348 349 350 353 353 351 349 346 346 343 345 347 346 342 340 342 342 351 350 351 349 348 348 346 346 347 345 347 349 350 350 350
356 357 355 354 353 351 349 349 347 347 344 347 347 346 347 348 349 347 346 346 343 344 344 342 336 341 344 343 347 348 350 349 350 349 347 346 345 344 348 349 348 348 347
357 356 355 352 353 350 351 347 352 346 344 346 343 339 334 335 341 344 339 338 337 342 344 347 346 342 344 342 341 345 348 347 348 350 348 344 345 346 347 347 346 346 346
355 356 356 355 352 352 350 348 347 344 341 345 345 339 329 324 330 339 338 337 336 340 339 340 345 344 343 341 341 343 344 346 348 351 347 344 345 345 344 343 343 343 343
351 353 349 351 348 347 346 346 344 346 344 339 343 343 340 338 329 326 334 335 337 337 334 335 337 341 342 339 343 345 341 342 347 349 346 344 343 341 339 338 339 340 342
357 354 352 349 346 346 344 342 345 343 343 341 338 339 340 339 337 331 326 329 332 333 333 332 333 334 338 339 337 337 338 338 341 344 343 343 341 339 337 336 337 338 339
350 345 350 350 346 346 346 348 348 348 344 345 343 342 341 337 333 331 328 328 329 330 334 335 334 334 335 336 339 336 334 334 333 336 337 338 338 337 337 336 336 336 338
340 344 342 341 340 339 338 338 334 337 340 340 340 340 340 339 339 337 333 329 328 332 333 335 335 335 336 336 336 336 336 331 329 329 330 332 333 334 335 336 336 336 336
335 339 336 337 335 334 333 331 329 331 335 334 333 330 334 335 337 335 331 328 325 326 330 331 336 337 338 337 338 336 333 328 327 326 326 327 329 330 332 333 333 333 333
329 330 331 330 330 329 328 327 324 325 324 324 327 325 322 323 325 325 328 330 326 318 319 325 328 334 334 336 336 335 332 331 328 325 323 324 325 326 326 327 329 328 328
326 326 324 325 323 324 324 323 319 319 319 319 318 320 319 318 318 319 320 320 322 322 317 324 326 330 332 334 335 334 332 330 328 325 323 322 322 322 322 322 323 324 326
320 317 317 316 314 316 317 317 317 315 313 313 314 314 313 315 313 314 315 315 315 316 312 315 322 323 325 325 328 329 330 330 329 323 323 321 319 319 319 319 319 320 322
317 315 315 315 315 316 318 311 310 311 311 311 312 313 313 313 311 311 310 311 312 313 311 308 312 315 318 322 326 327 330 333 329 326 322 321 319 317 317 317 316 317 317
316 316 316 315 314 315 309 307 307 307 308 309 310 310 309 309 306 306 306 306 306 308 308 306 306 310 313 316 315 321 325 325 328 327 321 321 320 319 319 317 315 315 313
314 314 314 314 314 307 306 305 306 306 307 309 309 309 307 307 304 303 304 304 304 303 303 303 303 305 308 310 312 310 310 315 319 325 325 323 321 320 320 319 316 315 312
314 313 313 313 313 306 303 303 303 305 306 307 309 309 308 308 310 307 304 302 302 300 300 299 299 301 302 303 303 305 305 307 310 311 314 316 319 321 321 316 319 318 314
312 312 311 310 308 305 300 301 302 303 307 307 306 308 308 309 308 308 306 305 304 300 299 298 298 298 299 300 302 303 302 302 301 312 306 306 312 309 314 315 317 313 311
312 311 310 308 309 309 299 299 301 303 306 307 305 305 305 308 309 308 307 306 305 304 304 301 299 299 299 301 303 302 302 301 301 305 304 302 307 306 309 312 311 311 311
310 309 309 310 308 306 300 298 300 305 306 307 308 307 306 306 306 302 303 302 303 303 303 304 303 303 304 304 305 303 301 300 301 301 303 298 304 304 307 309 308 307 306
308 307 308 308 308 308 299 298 299 304 304 305 305 306 306 307 300 297 299 299 300 300 303 302 301 300 298 297 299 299 297 297 296 298 301 302 302 303 305 306 309 308 307
307 307 308 310 308 308 296 296 297 302 300 299 302 305 304 301 297 296 298 299 298 300 301 301 301 301 301 302 300 301 300 297 296 296 302 301 301 304 303 309 310 314 312
Wind_Speed
4 4 3 4 7 6 7 5 6 5 6 6 7 7 8 6 5 3 3 13 15 13 14 13 10 8 9 12 12 13 13 13 13 14 14 14 15 14 15 15 15 14 14
4 5 5 5 5 4 5 6 5 6 5 6 7 7 6 6 7 6 6 5 12 14 12 6 6 8 11 11 11 12 12 12 13 12 13 13 13 14 15 16 15 16 14
5 5 2 3 3 5 6 2 3 2 3 4 6 7 6 6 6 6 4 4 4 11 11 10 9 12 12 9 13 11 10 9 11 11 11 10 10 11 13 14 15 15 15
7 2 4 5 6 5 4 4 3 4 6 7 8 7 5 6 6 3 4 4 4 2 6 14 2 13 27 15 16 10 7 6 9 8 8 8 9 10 11 13 14 15 15
4 3 4 6 6 4 3 3 4 5 5 4 5 5 4 4 3 4 5 5 5 6 3 6 5 9 18 23 15 9 9 8 9 9 9 8 7 9 11 12 12 14 15
5 6 6 7 6 3 3 4 5 4 5 4 6 5 3 3 3 2 3 5 5 6 5 6 7 8 12 28 18 12 10 8 10 9 10 9 8 7 9 11 11 13 15
5 5 5 5 6 4 4 6 5 5 4 4 4 4 5 7 7 4 4 3 4 4 6 7 3 3 6 28 19 13 11 10 10 10 11 9 9 7 6 9 9 10 11
6 5 5 6 6 4 6 8 6 4 6 7 5 4 4 4 3 6 3 3 6 5 6 5 7 8 9 7 9 14 14 15 13 11 10 10 8 8 8 8 7 7 8
9 9 6 5 6 6 6 8 10 11 10 9 9 5 4 4 3 2 6 6 6 5 5 5 6 8 9 8 7 10 17 14 13 12 11 11 10 9 8 7 7 7 6
3 2 5 6 6 4 7 8 7 11 11 9 7 4 6 4 4 8 4 4 5 6 7 5 6 6 6 6 9 11 15 15 15 14 14 12 11 10 10 9 7 6 7
5 1 6 8 5 4 4 7 8 9 7 4 6 5 5 3 6 8 11 8 3 4 6 8 7 7 7 7 7 11 19 20 17 14 14 15 14 12 11 10 9 9 8
6 8 6 6 8 6 6 5 5 7 6 6 5 6 6 6 5 8 9 9 10 7 14 8 8 8 9 9 13 18 17 18 18 19 18 17 16 13 12 11 11 10 9
5 5 6 5 5 5 5 5 6 6 6 6 6 5 5 7 7 6 7 9 8 8 8 8 7 8 9 10 12 20 18 19 20 19 17 18 16 15 15 14 13 12 11
5 6 5 5 6 6 6 7 5 6 7 6 7 8 7 6 5 4 4 7 10 9 8 9 7 9 8 5 10 22 10 8 15 20 23 18 19 16 14 13 12 11 12
7 6 7 6 5 5 6 7 7 8 8 7 6 6 7 8 8 9 7 5 5 11 11 8 6 6 7 7 7 5 5 23 10 14 18 18 18 16 15 14 13 13 13
8 7 7 7 8 7 8 8 7 8 9 7 7 8 8 8 10 9 8 9 8 8 11 4 4 7 9 5 7 6 6 9 18 25 19 16 15 16 15 15 14 13 13
10 10 10 9 10 9 9 8 8 9 12 12 11 10 11 10 8 9 9 9 9 10 11 11 7 7 8 8 7 5 5 6 3 14 10 14 16 16 14 14 15 14 15
7 7 7 7 6 8 7 12 12 12 12 12 11 10 11 9 11 11 9 12 10 11 11 17 12 11 12 9 8 6 5 4 4 3 4 3 4 14 14 14 12 13 14
7 6 6 6 7 8 12 11 11 11 11 10 10 10 11 11 8 9 10 9 9 9 10 12 13 10 11 10 11 7 6 7 6 12 14 13 14 21 20 20 17 14 11
7 8 7 8 7 11 10 10 10 10 10 10 11 10 10 9 11 11 9 9 9 10 10 10 12 12 11 11 8 10 11 11 8 9 12 15 13 21 19 25 19 18 18
7 7 7 7 7 10 8 8 9 10 10 11 10 9 9 13 16 10 6 10 9 9 9 10 10 11 10 10 10 9 8 9 10 10 6 6 5 5 8 14 15 21 14
8 8 9 10 7 6 5 7 9 10 10 10 11 12 12 15 11 14 11 12 11 9 11 9 9 10 13 12 11 8 7 8 7 5 9 10 8 8 8 7 7 7 7
6 6 6 6 3 4 3 7 10 9 8 8 9 10 9 9 13 11 13 15 14 15 18 13 13 12 12 11 10 10 8 5 6 7 9 8 5 5 6 3 6 0 4
6 6 7 7 6 5 4 6 11 10 9 9 9 9 11 12 10 11 13 14 15 15 15 11 12 12 11 9 7 3 6 6 4 6 5 7 6 7 7 7 12 7 11
7 8 7 7 6 7 12 11 11 11 11 12 12 12 12 11 12 13 13 13 14 14 14 18 17 15 11 11 10 5 7 7 7 8 4 3 5 7 8 9 7 9 6
6 5 5 4 6 7 8 13 13 8 10 10 11 11 10 14 19 22 12 11 12 15 15 14 11 9 8 7 10 7 6 6 6 6 4 3 5 2 4 3 4 2 5
Wind_Direction
236 182 253 239 187 181 201 213 215 234 213 219 237 237 241 245 299 304 274 201 210 199 203 198 227 259 261 250 235 235 235 237 232 233 230 224 225 227 225 224 230 227 219
247 195 212 223 225 207 225 193 201 222 209 237 253 232 231 243 241 238 254 220 205 210 208 188 211 254 277 250 241 238 238 236 237 236 239 230 223 223 227 226 225 229 224
248 218 244 284 265 236 233 281 274 303 273 291 272 266 260 243 248 258 255 266 215 224 168 195 217 238 251 270 256 238 239 243 250 245 246 241 233 223 223 232 229 229 229
220 189 264 258 239 238 195 199 234 235 237 224 238 236 241 218 249 277 304 296 268 128 178 216 134 53 303 271 248 237 231 222 248 251 246 237 233 230 224 224 230 227 231
199 221 255 261 263 229 224 228 220 226 240 247 275 268 248 242 267 290 311 306 322 312 144 224 145 195 244 273 241 229 233 222 234 245 237 238 233 227 224 223 225 228 229
215 223 240 282 312 242 266 269 246 249 245 250 262 309 312 298 269 288 287 295 289 285 151 176 179 209 207 256 250 224 214 218 242 249 247 251 239 241 236 224 223 224 222
239 245 247 244 264 261 251 260 238 227 275 286 299 275 268 260 247 229 231 242 298 303 277 196 146 118 308 259 241 232 218 222 232 241 245 245 238 240 225 210 222 224 234
218 254 234 263 272 240 254 261 259 246 239 224 231 272 279 298 262 224 224 255 250 243 245 195 180 184 197 230 220 231 228 219 223 236 238 238 225 208 188 188 190 204 213
210 209 238 244 275 316 307 282 272 249 267 278 262 235 290 237 340 117 233 227 232 244 256 247 208 201 214 211 210 221 222 217 212 225 212 220 202 187 176 174 174 165 168
40 41 262 314 340 327 289 315 308 313 273 295 317 298 278 283 288 295 263 255 242 248 264 271 259 237 241 238 210 197 200 213 209 213 204 213 202 187 184 175 177 169 170
46 164 254 265 258 229 278 309 295 279 273 273 286 290 264 265 263 261 280 277 270 259 274 253 245 249 237 221 229 227 209 196 190 204 202 204 207 201 202 192 190 192 187
61 22 36 21 47 356 11 343 343 342 323 306 301 308 290 280 281 278 270 281 276 265 256 237 226 240 240 231 224 226 208 198 196 196 198 201 201 202 210 198 198 197 201
76 44 30 21 13 12 358 1 326 324 2 355 349 320 306 305 302 298 294 289 285 281 275 275 260 255 246 244 233 227 213 200 196 201 199 207 214 187 206 202 203 203 212
57 50 40 19 26 12 7 8 337 351 357 356 350 332 314 316 314 299 296 307 306 294 288 278 286 294 292 314 326 352 338 260 235 210 199 197 203 196 203 208 209 211 220
40 31 23 23 356 14 1 9 359 354 358 336 329 342 347 329 327 336 327 283 286 303 296 295 298 296 301 324 306 260 209 260 245 233 225 205 205 195 201 203 209 213 219
17 14 13 6 1 357 10 15 358 345 328 343 335 342 345 343 333 327 325 322 318 291 290 310 297 307 305 305 282 268 245 250 246 225 210 212 219 216 206 206 210 218 223
19 11 4 7 1 351 15 358 352 354 355 349 348 345 335 333 329 330 323 318 321 326 315 315 301 272 277 286 278 258 279 275 264 219 214 215 208 207 214 220 226 214 219
11 356 352 351 343 2 16 27 7 349 346 341 335 337 343 351 342 358 346 339 329 330 331 317 323 320 317 292 266 265 253 251 267 300 71 340 332 308 253 231 224 231 233
15 358 0 351 3 7 39 19 3 350 341 333 337 346 347 346 356 344 332 325 325 318 322 312 312 312 312 307 293 273 233 238 250 252 232 209 221 261 263 252 226 217 216
17 4 356 2 9 60 36 17 359 348 336 350 353 348 340 341 334 319 321 331 330 325 316 312 313 317 318 314 343 358 352 346 294 257 239 231 217 228 232 248 211 212 213
17 358 11 4 20 66 33 19 1 344 333 341 329 328 331 328 306 303 317 320 320 313 311 308 305 309 314 327 326 335 330 333 341 33 360 358 316 254 241 229 212 215 215
19 3 21 30 44 52 31 16 355 339 327 328 335 340 337 326 338 318 295 280 266 279 285 286 289 289 295 298 303 312 324 326 317 26 0 328 4 352 1 24 108 105 188
13 356 30 21 44 38 337 358 342 319 328 323 323 307 309 315 311 309 305 291 270 258 248 263 272 271 279 285 296 306 315 331 315 326 334 300 338 320 327 344 20 164 192
12 348 23 18 3 40 268 3 330 316 305 321 319 339 320 315 335 1 330 318 310 303 297 287 280 282 284 277 275 297 299 276 270 281 285 285 318 313 314 300 295 248 209
20 353 5 4 21 345 48 20 350 334 329 339 339 325 322 329 349 332 327 314 305 300 299 289 277 268 274 281 263 298 287 289 298 297 284 254 279 295 296 291 278 261 31
20 318 336 323 305 58 57 30 9 351 350 338 330 323 337 352 339 329 331 322 321 319 312 303 301 294 277 286 261 235 262 271 277 294 264 251 267 294 294 295 276 41 23